Location: Ca�n Batista
(41.4099°N, 1.7752°E)
Time: 13:48:01
(UTC+00:00)

Meteor 1-19 Rocket - Pass Details

Date: 03 March 2021
Orbit: 807 x 928 km, 81.2° (Epoch: 21 April)

Event Time Altitude Azimuth Distance (km) Brightness Sun altitude
Rises 18:42:31 0° 350° (N) 3,559 7.6 -11.4°
Reaches altitude 10° 18:45:02 10° 351° (N) 2,601 6.9 -11.9°
Maximum altitude 18:50:59 87° 79° (E) 896 4.3 -13.0°
Drops below altitude 10° 18:56:43 10° 171° (S) 2,505 6.5 -14.0°
Sets 18:59:05 0° 171° (S) 3,420 7.2 -14.5°
